Simultaneous Nadir Overpasses (SNOs) Predictions

Prediction of SNOs between NPP and TERRA Satellite Orbit:

Table of predicted SNOs for the next 14.0 days since TLE Epoch: 1/24/2025
Index Date (NPP) Time (NPP) Lat,Lon (NPP) SZA (NPP ) Date (TERRA) Time (TERRA) Lat,Lon (TERRA) SZA (TERRA ) Distance(km) Time Diff (sec)
1 01/26/2025 17:47:06 -74.07, 82.12 87.05 01/26/2025 17:48:11 -74.00, 85.33 87.32 98.25 65
2 01/26/2025 18:37:35 73.25,-108.64 92.03 01/26/2025 18:37:43 73.25,-108.55 92.02 2.83 8
3 01/26/2025 19:28:17 -73.13, 58.94 88.12 01/26/2025 19:27:07 -73.14, 58.88 88.09 2.05 70
4 01/29/2025 04:59:16 -73.28, -84.12 88.58 01/29/2025 05:00:11 -73.26, -84.20 88.61 3.12 55
5 01/29/2025 05:50:00 73.20, 83.36 91.33 01/29/2025 05:49:30 73.19, 83.35 91.33 1.11 30
6 01/31/2025 16:11:41 -73.24, 107.86 89.29 01/31/2025 16:11:56 -73.26, 107.83 89.28 2.44 15
7 01/31/2025 17:02:25 73.17, -84.67 90.62 01/31/2025 17:01:15 73.19, -84.64 90.66 2.82 70
8 02/03/2025 02:33:24 73.34, 132.22 90.12 02/03/2025 02:34:17 73.32, 132.31 90.09 3.40 53
9 02/03/2025 03:24:06 -73.22, -60.19 90.03 02/03/2025 03:23:41 -73.21, -60.24 90.02 1.77 25
10 02/05/2025 13:45:47 73.28, -35.74 89.32 02/05/2025 13:46:00 73.28, -35.75 89.31 0.47 13



Historial Predications of SNOs between NPP and TERRA
